Flag for Qatar Weather past 2 weeks in Al-Jamiliyah, Qatar

Now
96 °F

Haze.


Feels Like: 113 °F
Forecast: 85 / 105 °F
Wind: 8 mph from East

Location: Al Udeid

Current Time: Jul 4, 2015 at 8:20:33 PM

Latest Report: Jul 4, 2015 at 7:58 PM


Visibility: 6 mi

Pressure: 29.54 "Hg

Humidity: 57%

Dew point: 78 °F

Location of Al-JamiliyahLocation

Historic Weather in Al-Jamiliyah — Graph

°F

Al-Jamiliyah temperature yesterday

Maximum temperature yesterday: 111 °F (at 1:58 PM)
Minimum temperature yesterday: 84 °F (at 1:57 AM)
Average temperature yesterday: 96 °F

Past Weeks' High & Low Weather Summary

 TemperatureHumidityPressure
High115 °F (Jul 4, 1:57 PM)90% (Jul 4, 4:58 AM)29.66 "Hg (Jul 4, 4:58 AM)
Low80 °F (Jun 29, 4:58 AM)6% (Jun 25, 2:58 PM)29.42 "Hg (Jun 20, 4:58 PM)
Average96 °F27%29.54 "Hg
* Reported Jun 19 6:58 PM — Jul 4 6:58 PM, Al-Jamiliyah, Weather by CustomWeather, © 2015

Note: Actual official high and low records may vary slightly from our data, if they occured in-between our weather recording intervals... More about our weather records

Advertising

Al-Jamiliyah weather history for previous 24 hours

 ConditionsComfort  
Time TempWeatherWind HumidityBarometerVisibility
6:58 PM
Sat, Jul 4
99 °FPassing clouds.10 mph52%29.52 "HgN/A
5:58 PM101 °FPassing clouds.9 mph45%29.52 "HgN/A
4:58 PM103 °FHaze.12 mph35%29.50 "Hg6 mi
3:58 PM106 °FHaze.12 mph37%29.50 "Hg6 mi
2:58 PM111 °FSunny.14 mph32%29.51 "HgN/A
1:57 PM115 °FSunny.7 mph8%29.52 "HgN/A
12:58 PM113 °FSunny.9 mph9%29.53 "HgN/A
11:57 AM111 °FClear.1 mph12%29.55 "HgN/A
11:21 AM106 °FClear.3 mph22%29.57 "HgN/A
9:58 AM101 °FClear.1 mph30%29.57 "HgN/A
8:58 AM99 °FClear.2 mph35%29.58 "HgN/A
7:58 AM93 °FClear.7 mph57%29.58 "HgN/A
6:59 AM88 °FClear.6 mph73%29.57 "Hg5 mi
5:58 AM84 °FFog.3 mph89%29.55 "Hg5 mi
4:58 AM84 °FFog.3 mph90%29.54 "Hg3 mi
4:00 AM84 °FFog.3 mph84%29.53 "Hg5 mi
3:02 AM86 °FFog.1 mph79%29.53 "Hg5 mi
2:11 AM86 °FFog.8 mph75%29.52 "Hg5 mi
12:57 AM89 °FFog.6 mph75%29.54 "Hg5 mi
11:58 PM
Fri, Jul 3
91 °FPassing clouds.9 mph59%29.55 "HgN/A
10:59 PM93 °FPartly sunny.10 mph48%29.56 "HgN/A
9:58 PM95 °FScattered clouds.5 mph45%29.58 "HgN/A
8:58 PM96 °FScattered clouds.2 mph44%29.56 "HgN/A
Weather by CustomWeather, © 2015

See weather overviewHow to use our weather pages